Time,TemperatureF,DewpointF,PressureIn,WindDirection,WindDirectionDegrees,WindSpeedMPH,WindSpeedGustMPH,Humidity,HourlyPrecipIn,Conditions,Clouds,dailyrainin,SoftwareType,DateUTC
2013-11-15 13:37:00,51.0,31.9,30.03,SSW,195,5.0,13.0,48,0.00,,,0.00,WUHU216DAVISVP2,2013-11-15 18:37:00,
2013-11-15 13:38:00,51.0,31.9,30.03,SSE,162,13.0,13.0,48,0.00,,,0.00,WUHU216DAVISVP2,2013-11-15 18:38:00,
2013-11-15 13:43:00,51.5,31.4,30.03,SSW,193,3.0,13.0,46,0.00,,,0.00,WUHU216DAVISVP2,2013-11-15 18:43:00,
2013-11-15 13:48:00,51.5,31.3,30.03,SSW,204,9.0,13.0,46,0.00,,,0.00,WUHU216DAVISVP2,2013-11-15 18:48:00,
2013-11-15 13:53:00,51.5,31.4,30.03,South,170,9.0,15.0,46,0.00,,,0.00,WUHU216DAVISVP2,2013-11-15 18:53:00,
2013-11-15 13:58:00,52.0,31.3,30.03,SSW,205,8.0,15.0,45,0.00,,,0.00,WUHU216DAVISVP2,2013-11-15 18:58:00,
2013-11-15 14:03:00,52.3,31.5,30.03,South,176,7.0,16.0,45,0.00,,,0.00,WUHU216DAVISVP2,2013-11-15 19:03:00,
2013-11-15 14:08:00,52.4,31.0,30.03,SSW,192,9.0,16.0,44,0.00,,,0.00,WUHU216DAVISVP2,2013-11-15 19:08:00,
2013-11-15 14:13:00,52.1,30.7,30.03,SW,223,11.0,16.0,44,0.00,,,0.00,WUHU216DAVISVP2,2013-11-15 19:13:00,
2013-11-15 14:18:00,51.8,31.0,30.03,SSW,193,6.0,16.0,45,0.00,,,0.00,WUHU216DAVISVP2,2013-11-15 19:18:00,
2013-11-15 14:23:00,51.7,30.9,30.03,SSW,203,8.0,15.0,45,0.00,,,0.00,WUHU216DAVISVP2,2013-11-15 19:23:00,
2013-11-15 14:28:00,52.0,31.2,30.03,SSW,210,8.0,14.0,45,0.00,,,0.00,WUHU216DAVISVP2,2013-11-15 19:28:00,
2013-11-15 14:33:00,51.8,31.0,30.04,SW,215,8.0,15.0,45,0.00,,,0.00,WUHU216DAVISVP2,2013-11-15 19:33:00,
2013-11-15 14:38:00,51.6,30.8,30.03,SSW,197,6.0,15.0,45,0.00,,,0.00,WUHU216DAVISVP2,2013-11-15 19:38:00,
2013-11-15 14:43:00,51.4,30.7,30.04,SW,228,11.0,18.0,45,0.00,,,0.00,WUHU216DAVISVP2,2013-11-15 19:43:00,
2013-11-15 14:48:00,51.2,31.0,30.04,SW,235,8.0,18.0,46,0.00,,,0.00,WUHU216DAVISVP2,2013-11-15 19:48:00,
2013-11-15 14:53:00,51.0,31.5,30.03,SSE,150,8.0,18.0,47,0.00,,,0.00,WUHU216DAVISVP2,2013-11-15 19:53:00,
2013-11-15 14:58:00,50.9,31.3,30.03,SSW,204,6.0,18.0,47,0.00,,,0.00,WUHU216DAVISVP2,2013-11-15 19:58:00,
2013-11-15 15:03:00,50.8,31.8,30.03,SSW,195,8.0,15.0,48,0.00,,,0.00,WUHU216DAVISVP2,2013-11-15 20:03:00,
2013-11-15 15:08:00,50.8,31.8,30.03,SW,222,11.0,14.0,48,0.00,,,0.00,WUHU216DAVISVP2,2013-11-15 20:08:00,
2013-11-15 15:13:00,50.8,31.8,30.02,SW,219,8.0,14.0,48,0.00,,,0.00,WUHU216DAVISVP2,2013-11-15 20:13:00,
2013-11-15 15:18:00,50.9,31.8,30.02,SSW,201,10.0,14.0,48,0.00,,,0.00,WUHU216DAVISVP2,2013-11-15 20:18:00,
2013-11-15 15:23:00,51.0,31.9,30.02,South,190,6.0,14.0,48,0.00,,,0.00,WUHU216DAVISVP2,2013-11-15 20:23:00,
2013-11-15 15:28:00,51.1,32.0,30.03,SSW,201,5.0,14.0,48,0.00,,,0.00,WUHU216DAVISVP2,2013-11-15 20:28:00,
2013-11-15 15:33:00,51.2,32.1,30.03,SW,225,3.0,13.0,48,0.00,,,0.00,WUHU216DAVISVP2,2013-11-15 20:33:00,
2013-11-15 15:38:00,51.2,32.1,30.03,SSW,210,4.0,13.0,48,0.00,,,0.00,WUHU216DAVISVP2,2013-11-15 20:38:00,
2013-11-15 15:43:00,51.1,32.0,30.02,SSW,200,6.0,12.0,48,0.00,,,0.00,WUHU216DAVISVP2,2013-11-15 20:43:00,
2013-11-15 15:48:00,51.1,32.0,30.02,South,181,9.0,15.0,48,0.00,,,0.00,WUHU216DAVISVP2,2013-11-15 20:48:00,
2013-11-15 15:52:00,51.1,32.0,30.02,SSW,203,5.0,16.0,48,0.00,,,0.00,WUHU216DAVISVP2,2013-11-15 20:52:00,
2013-11-15 15:57:00,51.1,32.0,30.02,South,188,2.0,16.0,48,0.00,,,0.00,WUHU216DAVISVP2,2013-11-15 20:57:00,
2013-11-15 16:03:00,51.1,32.6,30.02,South,184,5.0,16.0,49,0.00,,,0.00,WUHU216DAVISVP2,2013-11-15 21:03:00,
2013-11-15 16:07:00,51.0,33.0,30.02,SSE,167,5.0,12.0,50,0.00,,,0.00,WUHU216DAVISVP2,2013-11-15 21:07:00,
2013-11-15 16:13:00,51.0,33.0,30.03,SSW,210,4.0,10.0,50,0.00,,,0.00,WUHU216DAVISVP2,2013-11-15 21:13:00,
2013-11-15 16:18:00,50.8,32.8,30.03,South,191,8.0,10.0,50,0.00,,,0.00,WUHU216DAVISVP2,2013-11-15 21:18:00,
2013-11-15 16:22:00,50.7,32.7,30.03,SW,218,8.0,13.0,50,0.00,,,0.00,WUHU216DAVISVP2,2013-11-15 21:22:00,
2013-11-15 16:27:00,50.6,32.6,30.03,South,179,3.0,13.0,50,0.00,,,0.00,WUHU216DAVISVP2,2013-11-15 21:27:00,
2013-11-15 16:33:00,50.6,33.1,30.03,SSW,193,6.0,13.0,51,0.00,,,0.00,WUHU216DAVISVP2,2013-11-15 21:33:00,
2013-11-15 16:38:00,50.5,33.0,30.03,SSW,197,4.0,13.0,51,0.00,,,0.00,WUHU216DAVISVP2,2013-11-15 21:38:00,
2013-11-15 16:43:00,50.4,32.9,30.04,South,190,4.0,12.0,51,0.00,,,0.00,WUHU216DAVISVP2,2013-11-15 21:43:00,
2013-11-15 16:48:00,50.3,33.3,30.04,South,175,6.0,12.0,52,0.00,,,0.00,WUHU216DAVISVP2,2013-11-15 21:48:00,
2013-11-15 16:53:00,50.2,32.8,30.04,South,188,6.0,11.0,51,0.00,,,0.00,WUHU216DAVISVP2,2013-11-15 21:53:00,
2013-11-15 16:58:00,50.2,32.8,30.04,SSW,201,8.0,11.0,51,0.00,,,0.00,WUHU216DAVISVP2,2013-11-15 21:58:00,
2013-11-15 17:03:00,50.2,32.8,30.04,South,180,4.0,11.0,51,0.00,,,0.00,WUHU216DAVISVP2,2013-11-15 22:03:00,
2013-11-15 17:08:00,50.1,32.2,30.03,SSW,193,6.0,12.0,50,0.00,,,0.00,WUHU216DAVISVP2,2013-11-15 22:08:00,
2013-11-15 17:13:00,50.0,32.1,30.03,SSW,195,6.0,12.0,50,0.00,,,0.00,WUHU216DAVISVP2,2013-11-15 22:13:00,
2013-11-15 17:18:00,49.9,32.5,30.03,SSW,207,4.0,12.0,51,0.00,,,0.00,WUHU216DAVISVP2,2013-11-15 22:18:00,
2013-11-15 17:23:00,49.7,32.3,30.03,South,180,1.0,12.0,51,0.00,,,0.00,WUHU216DAVISVP2,2013-11-15 22:23:00,
2013-11-15 17:28:00,49.4,32.5,30.03,South,177,2.0,12.0,52,0.00,,,0.00,WUHU216DAVISVP2,2013-11-15 22:28:00,
2013-11-15 17:33:00,49.0,32.6,30.03,South,183,0.0,7.0,53,0.00,,,0.00,WUHU216DAVISVP2,2013-11-15 22:33:00,
2013-11-15 17:38:00,48.7,32.3,30.03,SSE,153,0.0,5.0,53,0.00,,,0.00,WUHU216DAVISVP2,2013-11-15 22:38:00,
2013-11-15 17:43:00,48.5,32.6,30.03,South,174,1.0,5.0,54,0.00,,,0.00,WUHU216DAVISVP2,2013-11-15 22:43:00,
2013-11-15 17:48:00,48.3,32.9,30.03,SSE,160,0.0,5.0,55,0.00,,,0.00,WUHU216DAVISVP2,2013-11-15 22:48:00,
2013-11-15 17:53:00,48.0,32.6,30.03,SSE,160,0.0,4.0,55,0.00,,,0.00,WUHU216DAVISVP2,2013-11-15 22:53:00,
2013-11-15 17:58:00,47.7,32.8,30.03,SSE,157,1.0,4.0,56,0.00,,,0.00,WUHU216DAVISVP2,2013-11-15 22:58:00,
2013-11-15 18:03:00,47.3,32.9,30.03,SSE,161,1.0,4.0,57,0.00,,,0.00,WUHU216DAVISVP2,2013-11-15 23:03:00,
2013-11-15 18:08:00,47.1,32.7,30.03,SSE,151,1.0,4.0,57,0.00,,,0.00,WUHU216DAVISVP2,2013-11-15 23:08:00,
2013-11-15 18:13:00,46.9,32.9,30.03,SSE,158,0.0,4.0,58,0.00,,,0.00,WUHU216DAVISVP2,2013-11-15 23:13:00,
2013-11-15 18:18:00,46.8,32.9,30.04,South,187,0.0,5.0,58,0.00,,,0.00,WUHU216DAVISVP2,2013-11-15 23:18:00,
2013-11-15 18:23:00,46.7,32.8,30.04,South,169,2.0,5.0,58,0.00,,,0.00,WUHU216DAVISVP2,2013-11-15 23:23:00,
2013-11-15 18:28:00,46.6,32.6,30.04,SSE,151,2.0,7.0,58,0.00,,,0.00,WUHU216DAVISVP2,2013-11-15 23:28:00,
2013-11-15 18:33:00,46.7,32.8,30.04,South,188,1.0,8.0,58,0.00,,,0.00,WUHU216DAVISVP2,2013-11-15 23:33:00,
2013-11-15 18:38:00,46.8,32.4,30.04,South,170,0.0,8.0,57,0.00,,,0.00,WUHU216DAVISVP2,2013-11-15 23:38:00,
2013-11-15 18:43:00,46.9,32.4,30.05,South,190,4.0,8.0,57,0.00,,,0.00,WUHU216DAVISVP2,2013-11-15 23:43:00,
2013-11-15 18:48:00,47.1,32.6,30.05,South,176,2.0,8.0,57,0.00,,,0.00,WUHU216DAVISVP2,2013-11-15 23:48:00,
2013-11-15 18:53:00,47.2,32.7,30.05,SSW,203,2.0,8.0,57,0.00,,,0.00,WUHU216DAVISVP2,2013-11-15 23:53:00,
2013-11-15 18:58:00,47.3,32.9,30.05,South,184,1.0,8.0,57,0.00,,,0.00,WUHU216DAVISVP2,2013-11-15 23:58:00,
2013-11-15 19:03:00,47.2,33.2,30.05,South,186,5.0,7.0,58,0.00,,,0.00,WUHU216DAVISVP2,2013-11-16 00:03:00,
2013-11-15 19:08:00,47.2,33.2,30.05,South,180,7.0,8.0,58,0.00,,,0.00,WUHU216DAVISVP2,2013-11-16 00:08:00,
2013-11-15 19:13:00,47.2,33.6,30.05,SSE,164,7.0,9.0,59,0.00,,,0.00,WUHU216DAVISVP2,2013-11-16 00:13:00,
2013-11-15 19:18:00,47.2,33.7,30.05,South,173,1.0,9.0,59,0.00,,,0.00,WUHU216DAVISVP2,2013-11-16 00:18:00,
2013-11-15 19:23:00,47.1,33.6,30.05,SSW,205,1.0,9.0,59,0.00,,,0.00,WUHU216DAVISVP2,2013-11-16 00:23:00,
2013-11-15 19:28:00,47.1,33.6,30.05,SSW,203,1.0,9.0,59,0.00,,,0.00,WUHU216DAVISVP2,2013-11-16 00:28:00,
2013-11-15 19:33:00,47.2,33.7,30.06,SSW,197,2.0,9.0,59,0.00,,,0.00,WUHU216DAVISVP2,2013-11-16 00:33:00,
2013-11-15 19:38:00,47.3,33.3,30.06,SSW,194,1.0,7.0,58,0.00,,,0.00,WUHU216DAVISVP2,2013-11-16 00:38:00,
2013-11-15 19:43:00,47.4,33.4,30.06,SSW,210,1.0,7.0,58,0.00,,,0.00,WUHU216DAVISVP2,2013-11-16 00:43:00,
2013-11-15 19:48:00,47.3,33.3,30.06,SSW,195,3.0,7.0,58,0.00,,,0.00,WUHU216DAVISVP2,2013-11-16 00:48:00,
2013-11-15 19:53:00,47.3,33.8,30.06,South,181,3.0,6.0,59,0.00,,,0.00,WUHU216DAVISVP2,2013-11-16 00:53:00,
2013-11-15 19:58:00,47.2,33.7,30.06,South,176,1.0,6.0,59,0.00,,,0.00,WUHU216DAVISVP2,2013-11-16 00:58:00,
2013-11-15 20:03:00,47.1,33.6,30.06,South,190,0.0,6.0,59,0.00,,,0.00,WUHU216DAVISVP2,2013-11-16 01:03:00,
2013-11-15 20:08:00,47.1,34.0,30.06,South,179,1.0,6.0,60,0.00,,,0.00,WUHU216DAVISVP2,2013-11-16 01:08:00,
2013-11-15 20:13:00,47.0,33.9,30.06,SSW,197,3.0,5.0,60,0.00,,,0.00,WUHU216DAVISVP2,2013-11-16 01:13:00,
2013-11-15 20:18:00,47.0,33.8,30.06,South,190,0.0,5.0,60,0.00,,,0.00,WUHU216DAVISVP2,2013-11-16 01:18:00,
2013-11-15 20:23:00,47.0,33.8,30.06,South,188,2.0,5.0,60,0.00,,,0.00,WUHU216DAVISVP2,2013-11-16 01:23:00,
2013-11-15 20:28:00,47.1,33.9,30.07,SSW,197,3.0,8.0,60,0.00,,,0.00,WUHU216DAVISVP2,2013-11-16 01:28:00,
2013-11-15 20:33:00,47.1,34.0,30.07,SSW,204,2.0,8.0,60,0.00,,,0.00,WUHU216DAVISVP2,2013-11-16 01:33:00,
2013-11-15 20:38:00,47.1,34.0,30.07,SSW,193,0.0,8.0,60,0.00,,,0.00,WUHU216DAVISVP2,2013-11-16 01:38:00,
2013-11-15 20:43:00,47.1,34.0,30.07,SSW,194,3.0,8.0,60,0.00,,,0.00,WUHU216DAVISVP2,2013-11-16 01:43:00,
2013-11-15 20:48:00,47.2,34.1,30.07,South,175,1.0,7.0,60,0.00,,,0.00,WUHU216DAVISVP2,2013-11-16 01:48:00,
2013-11-15 20:53:00,47.2,34.5,30.07,SSW,193,1.0,7.0,61,0.00,,,0.00,WUHU216DAVISVP2,2013-11-16 01:53:00,
2013-11-15 20:58:00,47.2,34.5,30.07,SSW,193,0.0,6.0,61,0.00,,,0.00,WUHU216DAVISVP2,2013-11-16 01:58:00,
2013-11-15 21:03:00,47.1,34.4,30.07,South,191,2.0,6.0,61,0.00,,,0.00,WUHU216DAVISVP2,2013-11-16 02:03:00,
2013-11-15 21:08:00,47.1,34.4,30.07,SSE,156,1.0,6.0,61,0.00,,,0.00,WUHU216DAVISVP2,2013-11-16 02:08:00,
2013-11-15 21:13:00,47.0,34.7,30.07,South,179,1.0,5.0,62,0.00,,,0.00,WUHU216DAVISVP2,2013-11-16 02:13:00,
2013-11-15 21:18:00,46.9,34.6,30.07,South,191,0.0,5.0,62,0.00,,,0.00,WUHU216DAVISVP2,2013-11-16 02:18:00,
2013-11-15 21:23:00,46.8,34.6,30.07,SSE,166,0.0,5.0,62,0.00,,,0.00,WUHU216DAVISVP2,2013-11-16 02:23:00,
2013-11-15 21:28:00,46.7,34.5,30.07,South,179,1.0,5.0,62,0.00,,,0.00,WUHU216DAVISVP2,2013-11-16 02:28:00,
2013-11-15 21:33:00,46.6,34.4,30.07,SSE,166,0.0,5.0,62,0.00,,,0.00,WUHU216DAVISVP2,2013-11-16 02:33:00,
2013-11-15 21:38:00,46.5,34.6,30.07,South,170,2.0,5.0,63,0.00,,,0.00,WUHU216DAVISVP2,2013-11-16 02:38:00,
2013-11-15 21:43:00,46.4,34.5,30.07,South,173,4.0,5.0,63,0.00,,,0.00,WUHU216DAVISVP2,2013-11-16 02:43:00,
2013-11-15 21:48:00,46.4,34.5,30.07,South,169,3.0,5.0,63,0.00,,,0.00,WUHU216DAVISVP2,2013-11-16 02:48:00,
2013-11-15 21:53:00,46.3,34.4,30.07,South,177,1.0,5.0,63,0.00,,,0.00,WUHU216DAVISVP2,2013-11-16 02:53:00,
2013-11-15 21:58:00,46.1,34.7,30.07,SSE,161,0.0,5.0,64,0.00,,,0.00,WUHU216DAVISVP2,2013-11-16 02:58:00,
2013-11-15 22:03:00,45.8,34.8,30.07,SSE,159,1.0,4.0,65,0.00,,,0.00,WUHU216DAVISVP2,2013-11-16 03:03:00,
2013-11-15 22:08:00,45.5,34.9,30.07,SE,140,1.0,4.0,66,0.00,,,0.00,WUHU216DAVISVP2,2013-11-16 03:08:00,
2013-11-15 22:13:00,45.2,34.6,30.07,SSE,150,0.0,4.0,66,0.00,,,0.00,WUHU216DAVISVP2,2013-11-16 03:13:00,
2013-11-15 22:18:00,45.0,34.4,30.07,SSE,150,1.0,4.0,66,0.00,,,0.00,WUHU216DAVISVP2,2013-11-16 03:18:00,
2013-11-15 22:23:00,44.9,34.3,30.07,SSE,154,2.0,5.0,66,0.00,,,0.00,WUHU216DAVISVP2,2013-11-16 03:23:00,
2013-11-15 22:28:00,44.7,34.1,30.08,SSE,165,0.0,5.0,66,0.00,,,0.00,WUHU216DAVISVP2,2013-11-16 03:28:00,
2013-11-15 22:33:00,44.5,34.3,30.07,SSE,148,2.0,5.0,67,0.00,,,0.00,WUHU216DAVISVP2,2013-11-16 03:33:00,
2013-11-15 22:38:00,44.2,34.0,30.07,SSE,153,1.0,5.0,67,0.00,,,0.00,WUHU216DAVISVP2,2013-11-16 03:38:00,
2013-11-15 22:43:00,44.0,33.8,30.07,SE,126,3.0,4.0,67,0.00,,,0.00,WUHU216DAVISVP2,2013-11-16 03:43:00,
2013-11-15 22:48:00,43.7,33.9,30.07,SSE,157,4.0,7.0,68,0.00,,,0.00,WUHU216DAVISVP2,2013-11-16 03:48:00,
2013-11-15 22:53:00,43.3,33.5,30.07,SSE,151,4.0,7.0,68,0.00,,,0.00,WUHU216DAVISVP2,2013-11-16 03:53:00,
2013-11-15 22:58:00,43.0,33.6,30.07,SSE,156,4.0,7.0,69,0.00,,,0.00,WUHU216DAVISVP2,2013-11-16 03:58:00,
2013-11-15 23:03:00,42.7,33.7,30.07,SE,143,7.0,7.0,70,0.00,,,0.00,WUHU216DAVISVP2,2013-11-16 04:03:00,
2013-11-15 23:08:00,42.4,33.4,30.07,SSE,156,2.0,8.0,70,0.00,,,0.00,WUHU216DAVISVP2,2013-11-16 04:08:00,
2013-11-15 23:13:00,42.2,33.5,30.06,SSE,156,3.0,8.0,71,0.00,,,0.00,WUHU216DAVISVP2,2013-11-16 04:13:00,
2013-11-15 23:18:00,42.0,33.7,30.06,SSE,148,2.0,8.0,72,0.00,,,0.00,WUHU216DAVISVP2,2013-11-16 04:18:00,
2013-11-15 23:23:00,41.9,33.5,30.06,SSW,208,2.0,8.0,72,0.00,,,0.00,WUHU216DAVISVP2,2013-11-16 04:23:00,
2013-11-15 23:28:00,41.7,33.7,30.06,SSE,160,4.0,8.0,73,0.00,,,0.00,WUHU216DAVISVP2,2013-11-16 04:28:00,
2013-11-15 23:33:00,41.6,33.6,30.06,SSE,168,2.0,7.0,73,0.00,,,0.00,WUHU216DAVISVP2,2013-11-16 04:33:00,
2013-11-15 23:38:00,41.5,33.5,30.06,SE,139,5.0,7.0,73,0.00,,,0.00,WUHU216DAVISVP2,2013-11-16 04:38:00,
2013-11-15 23:43:00,41.4,33.7,30.06,SSE,158,3.0,7.0,74,0.00,,,0.00,WUHU216DAVISVP2,2013-11-16 04:43:00,
2013-11-15 23:48:00,41.4,33.8,30.06,SSE,148,4.0,7.0,74,0.00,,,0.00,WUHU216DAVISVP2,2013-11-16 04:48:00,
2013-11-15 23:53:00,41.3,33.7,30.06,SE,136,2.0,7.0,74,0.00,,,0.00,WUHU216DAVISVP2,2013-11-16 04:53:00,
2013-11-15 23:58:00,41.4,34.1,30.06,SSE,150,3.0,7.0,75,0.00,,,0.00,WUHU216DAVISVP2,2013-11-16 04:58:00,